• In Uzbekistan
  • List of Countries
  • For 7 days
  • Water Temperature
  • Satellite Maps
  • Weather Map
  • Weather Widgets
  • user-avatar
    Login

    Hourly Weather Maun

    Today, 16 December, Saturday

    Time Temperature Precipitation Wind Pressure Humidity
    00:00 +29°C° 0.1 mm 3 mps 681 mmHg 52%
    01:00 +28°C° 0.1 mm 3 mps 681 mmHg 56%
    02:00 +27°C° 0 mm 3 mps 681 mmHg 61%
    03:00 +27°C° 0 mm 3 mps 681 mmHg 62%
    04:00 +26°C° 0 mm 3 mps 681 mmHg 63%
    05:00 +26°C° 0 mm 3 mps 681 mmHg 65%
    06:00 +27°C° 0 mm 4 mps 682 mmHg 61%
    07:00 +28°C° 0 mm 5 mps 682 mmHg 58%
    08:00 +29°C° 0 mm 5 mps 683 mmHg 54%
    09:00 +32°C° 0 mm 5 mps 683 mmHg 47%
    10:00 +33°C° 0 mm 5 mps 683 mmHg 39%
    11:00 +35°C° 0 mm 4 mps 684 mmHg 32%
    12:00 +36°C° 0 mm 4 mps 683 mmHg 27%
    13:00 +38°C° 0 mm 4 mps 683 mmHg 22%
    14:00 +40°C° 0 mm 4 mps 682 mmHg 17%
    15:00 +40°C° 0 mm 4 mps 681 mmHg 17%
    16:00 +40°C° 0 mm 4 mps 681 mmHg 16%
    17:00 +38°C° 0 mm 4 mps 680 mmHg 15%
    18:00 +37°C° 0 mm 3 mps 680 mmHg 17%
    19:00 +35°C° 0 mm 3 mps 680 mmHg 19%
    20:00 +32°C° 0 mm 2 mps 680 mmHg 21%
    21:00 +31°C° 0 mm 2 mps 681 mmHg 23%
    22:00 +30°C° 0 mm 2 mps 681 mmHg 25%
    23:00 +30°C° 0 mm 2 mps 681 mmHg 27%

    Tomorrow, 17 December, Sunday

    Time Temperature Precipitation Wind Pressure Humidity
    00:00 +29°C° 0 mm 2 mps 681 mmHg 29%
    01:00 +28°C° 0 mm 1 mps 681 mmHg 31%
    02:00 +28°C° 0 mm 1 mps 680 mmHg 33%
    03:00 +27°C° 0 mm 1 mps 680 mmHg 35%
    04:00 +27°C° 0 mm 1 mps 680 mmHg 38%
    05:00 +26°C° 0 mm 2 mps 680 mmHg 40%
    06:00 +27°C° 0 mm 2 mps 681 mmHg 40%
    07:00 +28°C° 0 mm 3 mps 681 mmHg 41%
    08:00 +30°C° 0 mm 3 mps 682 mmHg 41%
    09:00 +32°C° 0 mm 4 mps 682 mmHg 37%
    10:00 +34°C° 0 mm 4 mps 682 mmHg 34%
    11:00 +36°C° 0 mm 4 mps 682 mmHg 30%
    12:00 +36°C° 0 mm 3 mps 682 mmHg 27%
    13:00 +37°C° 0 mm 3 mps 681 mmHg 25%
    14:00 +38°C° 0 mm 2 mps 680 mmHg 22%
    15:00 +38°C° 0 mm 2 mps 680 mmHg 22%
    16:00 +38°C° 0 mm 2 mps 679 mmHg 22%
    17:00 +37°C° 0 mm 2 mps 679 mmHg 22%
    18:00 +36°C° 0 mm 2 mps 679 mmHg 24%
    19:00 +34°C° 0 mm 2 mps 679 mmHg 27%
    20:00 +32°C° 0 mm 1 mps 679 mmHg 29%
    21:00 +31°C° 0 mm 1 mps 679 mmHg 30%
    22:00 +31°C° 0 mm 1 mps 679 mmHg 31%
    23:00 +30°C° 0 mm 1 mps 680 mmHg 32%

    Day after tomorrow, 18 December, Monday

    Time Temperature Precipitation Wind Pressure Humidity
    00:00 +30°C° 0 mm 1 mps 679 mmHg 33%
    01:00 +30°C° 0 mm 1 mps 679 mmHg 33%
    02:00 +30°C° 0 mm 1 mps 679 mmHg 34%
    03:00 +29°C° 0 mm 1 mps 678 mmHg 36%
    04:00 +28°C° 0 mm 2 mps 678 mmHg 38%
    05:00 +27°C° 0 mm 2 mps 678 mmHg 40%
    06:00 +28°C° 0 mm 2 mps 679 mmHg 39%
    07:00 +29°C° 0 mm 3 mps 679 mmHg 38%
    08:00 +30°C° 0 mm 3 mps 680 mmHg 38%
    09:00 +33°C° 0 mm 3 mps 680 mmHg 34%
    10:00 +35°C° 0 mm 3 mps 680 mmHg 31%
    11:00 +37°C° 0 mm 3 mps 681 mmHg 28%
    12:00 +37°C° 0 mm 3 mps 680 mmHg 27%
    13:00 +37°C° 0 mm 3 mps 679 mmHg 26%
    14:00 +37°C° 0 mm 3 mps 679 mmHg 25%
    15:00 +37°C° 0 mm 2 mps 678 mmHg 25%
    16:00 +37°C° 0 mm 2 mps 678 mmHg 25%
    17:00 +37°C° 0 mm 2 mps 678 mmHg 25%
    18:00 +36°C° 0 mm 2 mps 678 mmHg 27%
    19:00 +35°C° 0 mm 2 mps 678 mmHg 30%
    20:00 +32°C° 0 mm 2 mps 678 mmHg 33%
    21:00 +32°C° 0 mm 2 mps 678 mmHg 35%
    22:00 +31°C° 0 mm 2 mps 678 mmHg 37%
    23:00 +30°C° 0 mm 2 mps 678 mmHg 39%

    19 December, Tuesday

    Time Temperature Precipitation Wind Pressure Humidity
    00:00 +30°C° 0 mm 1 mps 678 mmHg 40%
    01:00 +29°C° 0 mm 1 mps 678 mmHg 41%
    02:00 +29°C° 0 mm 1 mps 677 mmHg 43%
    03:00 +28°C° 0 mm 1 mps 677 mmHg 45%
    04:00 +28°C° 0 mm 1 mps 677 mmHg 47%
    05:00 +27°C° 0 mm 2 mps 677 mmHg 49%
    06:00 +28°C° 0.2 mm 2 mps 678 mmHg 48%
    07:00 +29°C° 0.2 mm 2 mps 679 mmHg 48%
    08:00 +29°C° 0.2 mm 2 mps 679 mmHg 48%
    09:00 +32°C° 0 mm 2 mps 679 mmHg 42%
    10:00 +35°C° 0 mm 2 mps 680 mmHg 37%
    11:00 +36°C° 0 mm 1 mps 680 mmHg 31%
    12:00 +36°C° 0 mm 1 mps 679 mmHg 30%
    13:00 +37°C° 0 mm 2 mps 679 mmHg 29%
    14:00 +37°C° 0 mm 2 mps 678 mmHg 28%
    15:00 +37°C° 0 mm 2 mps 678 mmHg 28%
    16:00 +37°C° 0 mm 2 mps 678 mmHg 29%
    17:00 +37°C° 0 mm 2 mps 678 mmHg 29%
    18:00 +36°C° 0 mm 2 mps 678 mmHg 32%
    19:00 +35°C° 0 mm 2 mps 678 mmHg 34%
    20:00 +32°C° 0 mm 2 mps 678 mmHg 37%
    21:00 +31°C° 0 mm 2 mps 678 mmHg 41%
    22:00 +30°C° 0 mm 2 mps 678 mmHg 45%
    23:00 +30°C° 0 mm 3 mps 678 mmHg 49%

    20 December, Wednesday

    Time Temperature Precipitation Wind Pressure Humidity
    00:00 +29°C° 0.1 mm 2 mps 678 mmHg 51%
    01:00 +28°C° 0.1 mm 2 mps 678 mmHg 54%
    02:00 +28°C° 0.1 mm 2 mps 677 mmHg 57%
    03:00 +27°C° 0.5 mm 2 mps 677 mmHg 61%
    04:00 +26°C° 0.5 mm 2 mps 678 mmHg 65%
    05:00 +25°C° 0.5 mm 2 mps 678 mmHg 69%
    06:00 +26°C° 0.1 mm 2 mps 679 mmHg 67%
    07:00 +27°C° 0.1 mm 2 mps 679 mmHg 65%
    08:00 +27°C° 0.1 mm 3 mps 680 mmHg 63%
    09:00 +27°C° 0.9 mm 3 mps 680 mmHg 63%
    10:00 +27°C° 0.9 mm 3 mps 680 mmHg 64%
    11:00 +27°C° 0.9 mm 3 mps 680 mmHg 65%
    12:00 +30°C° 0 mm 2 mps 680 mmHg 56%
    13:00 +32°C° 0 mm 2 mps 680 mmHg 47%
    14:00 +34°C° 0 mm 1 mps 680 mmHg 38%
    15:00 +34°C° 0 mm 1 mps 680 mmHg 37%
    16:00 +34°C° 0 mm 1 mps 679 mmHg 37%
    17:00 +34°C° 0 mm 1 mps 679 mmHg 36%
    18:00 +33°C° 0 mm 1 mps 679 mmHg 39%
    19:00 +32°C° 0 mm 1 mps 679 mmHg 41%
    20:00 +31°C° 0 mm 1 mps 679 mmHg 44%
    21:00 +30°C° 0.2 mm 1 mps 679 mmHg 47%
    22:00 +29°C° 0.2 mm 1 mps 679 mmHg 49%
    23:00 +29°C° 0.2 mm 1 mps 680 mmHg 52%

    21 December, Thursday

    Time Temperature Precipitation Wind Pressure Humidity
    00:00 +28°C° 0.4 mm 1 mps 679 mmHg 55%
    01:00 +27°C° 0.4 mm 1 mps 679 mmHg 59%
    02:00 +27°C° 0.4 mm 1 mps 679 mmHg 62%
    03:00 +26°C° 0.1 mm 2 mps 679 mmHg 65%
    04:00 +26°C° 0.1 mm 2 mps 679 mmHg 67%
    05:00 +26°C° 0.1 mm 2 mps 679 mmHg 70%
    06:00 +26°C° 0.3 mm 2 mps 680 mmHg 68%
    07:00 +27°C° 0.3 mm 2 mps 680 mmHg 66%
    08:00 +27°C° 0.3 mm 2 mps 681 mmHg 65%
    09:00 +28°C° 0.5 mm 2 mps 681 mmHg 59%
    10:00 +30°C° 0.5 mm 2 mps 681 mmHg 53%
    11:00 +31°C° 0.5 mm 2 mps 681 mmHg 47%
    12:00 +32°C° 0 mm 2 mps 680 mmHg 45%
    13:00 +34°C° 0 mm 3 mps 680 mmHg 43%
    14:00 +34°C° 0 mm 3 mps 679 mmHg 41%
    15:00 +34°C° 0 mm 3 mps 679 mmHg 41%
    16:00 +34°C° 0 mm 3 mps 678 mmHg 41%
    17:00 +34°C° 0 mm 3 mps 678 mmHg 41%
    18:00 +32°C° 0 mm 2 mps 678 mmHg 44%
    19:00 +31°C° 0 mm 2 mps 678 mmHg 46%
    20:00 +30°C° 0 mm 2 mps 679 mmHg 49%
    21:00 +29°C° 0 mm 2 mps 679 mmHg 52%
    22:00 +29°C° 0 mm 2 mps 679 mmHg 54%
    23:00 +28°C° 0 mm 2 mps 679 mmHg 56%
    Show more